• în România
  • Lista ţărilor
  • Pe 7 zile
  • Temperatura apei
  • Hartă satelitară
  • Meteo pe hartă
  • Widget-uri
  • user-avatar
    Intrare

    Meteo pe oră la Sydney

    Astăzi, 20 Iulie, Vineri

    Timp Temperatura Precipitaţii Vânt Presiune Umiditate
    00:00 +11°C° 0 mm 4 m/s 757 mmHg 52%
    01:00 +10°C° 0 mm 4 m/s 757 mmHg 53%
    02:00 +10°C° 0 mm 5 m/s 756 mmHg 51%
    03:00 +10°C° 0 mm 6 m/s 755 mmHg 49%
    04:00 +9°C° 0 mm 5 m/s 754 mmHg 53%
    05:00 +9°C° 0 mm 5 m/s 754 mmHg 52%
    06:00 +9°C° 0 mm 6 m/s 754 mmHg 51%
    07:00 +9°C° 0 mm 7 m/s 753 mmHg 49%
    08:00 +12°C° 0 mm 7 m/s 753 mmHg 44%
    09:00 +15°C° 0 mm 7 m/s 753 mmHg 38%
    10:00 +18°C° 0 mm 8 m/s 753 mmHg 32%
    11:00 +17°C° 0 mm 8 m/s 754 mmHg 34%
    12:00 +17°C° 0 mm 9 m/s 754 mmHg 36%
    13:00 +16°C° 0 mm 9 m/s 755 mmHg 38%
    14:00 +15°C° 0 mm 9 m/s 755 mmHg 38%
    15:00 +15°C° 0 mm 9 m/s 756 mmHg 38%
    16:00 +13°C° 0 mm 9 m/s 757 mmHg 38%
    17:00 +12°C° 0 mm 9 m/s 757 mmHg 42%
    18:00 +10°C° 0 mm 8 m/s 758 mmHg 46%
    19:00 +9°C° 0 mm 8 m/s 759 mmHg 51%
    20:00 +9°C° 0 mm 8 m/s 760 mmHg 51%
    21:00 +7°C° 0 mm 8 m/s 760 mmHg 51%
    22:00 +8°C° 0 mm 7 m/s 761 mmHg 51%
    23:00 +8°C° 0 mm 7 m/s 761 mmHg 52%

    Mâine, 21 Iulie, Sâmbătă

    Timp Temperatura Precipitaţii Vânt Presiune Umiditate
    00:00 +8°C° 0 mm 7 m/s 761 mmHg 52%
    01:00 +8°C° 0 mm 7 m/s 761 mmHg 52%
    02:00 +8°C° 0 mm 7 m/s 762 mmHg 54%
    03:00 +6°C° 0 mm 7 m/s 762 mmHg 57%
    04:00 +7°C° 0 mm 6 m/s 762 mmHg 59%
    05:00 +7°C° 0 mm 6 m/s 763 mmHg 61%
    06:00 +5°C° 0 mm 6 m/s 764 mmHg 64%
    07:00 +5°C° 0 mm 6 m/s 764 mmHg 66%
    08:00 +8°C° 0 mm 6 m/s 765 mmHg 59%
    09:00 +9°C° 0 mm 6 m/s 765 mmHg 51%
    10:00 +11°C° 0 mm 6 m/s 765 mmHg 44%
    11:00 +14°C° 0 mm 5 m/s 765 mmHg 39%
    12:00 +15°C° 0 mm 5 m/s 765 mmHg 34%
    13:00 +17°C° 0 mm 4 m/s 764 mmHg 29%
    14:00 +17°C° 0 mm 4 m/s 764 mmHg 30%
    15:00 +17°C° 0 mm 3 m/s 765 mmHg 31%
    16:00 +17°C° 0 mm 3 m/s 765 mmHg 33%
    17:00 +14°C° 0 mm 3 m/s 765 mmHg 40%
    18:00 +12°C° 0 mm 2 m/s 766 mmHg 47%
    19:00 +9°C° 0 mm 2 m/s 767 mmHg 54%
    20:00 +9°C° 0 mm 2 m/s 767 mmHg 58%
    21:00 +8°C° 0 mm 2 m/s 768 mmHg 62%
    22:00 +8°C° 0 mm 3 m/s 768 mmHg 65%
    23:00 +7°C° 0 mm 3 m/s 768 mmHg 67%

    Poimâine, 22 Iulie, Duminică

    Timp Temperatura Precipitaţii Vânt Presiune Umiditate
    00:00 +7°C° 0 mm 3 m/s 768 mmHg 68%
    01:00 +5°C° 0 mm 3 m/s 768 mmHg 70%
    02:00 +5°C° 0 mm 3 m/s 768 mmHg 70%
    03:00 +4°C° 0 mm 3 m/s 768 mmHg 71%
    04:00 +4°C° 0 mm 3 m/s 768 mmHg 71%
    05:00 +4°C° 0 mm 3 m/s 768 mmHg 70%
    06:00 +4°C° 0 mm 3 m/s 768 mmHg 69%
    07:00 +4°C° 0 mm 3 m/s 768 mmHg 68%
    08:00 +7°C° 0 mm 3 m/s 768 mmHg 59%
    09:00 +10°C° 0 mm 2 m/s 768 mmHg 50%
    10:00 +14°C° 0 mm 2 m/s 768 mmHg 41%
    11:00 +15°C° 0 mm 2 m/s 768 mmHg 37%
    12:00 +16°C° 0 mm 2 m/s 767 mmHg 34%
    13:00 +19°C° 0 mm 1 m/s 766 mmHg 31%
    14:00 +18°C° 0 mm 2 m/s 766 mmHg 32%
    15:00 +17°C° 0 mm 2 m/s 765 mmHg 33%
    16:00 +17°C° 0 mm 2 m/s 765 mmHg 34%
    17:00 +15°C° 0 mm 2 m/s 765 mmHg 43%
    18:00 +12°C° 0 mm 3 m/s 766 mmHg 51%
    19:00 +10°C° 0 mm 3 m/s 766 mmHg 60%
    20:00 +9°C° 0 mm 3 m/s 766 mmHg 63%
    21:00 +9°C° 0 mm 3 m/s 767 mmHg 66%
    22:00 +8°C° 0 mm 2 m/s 767 mmHg 70%
    23:00 +7°C° 0 mm 3 m/s 767 mmHg 70%

    23 Iulie, Luni

    Timp Temperatura Precipitaţii Vânt Presiune Umiditate
    00:00 +7°C° 0 mm 3 m/s 766 mmHg 70%
    01:00 +5°C° 0 mm 3 m/s 766 mmHg 70%
    02:00 +5°C° 0 mm 3 m/s 766 mmHg 69%
    03:00 +5°C° 0 mm 2 m/s 766 mmHg 67%
    04:00 +5°C° 0 mm 2 m/s 765 mmHg 65%
    05:00 +5°C° 0 mm 2 m/s 766 mmHg 64%
    06:00 +5°C° 0 mm 2 m/s 766 mmHg 63%
    07:00 +4°C° 0 mm 2 m/s 766 mmHg 62%
    08:00 +7°C° 0 mm 2 m/s 766 mmHg 53%
    09:00 +10°C° 0 mm 2 m/s 765 mmHg 44%
    10:00 +14°C° 0 mm 2 m/s 765 mmHg 35%
    11:00 +16°C° 0 mm 2 m/s 764 mmHg 32%
    12:00 +17°C° 0 mm 3 m/s 764 mmHg 29%
    13:00 +19°C° 0 mm 3 m/s 763 mmHg 26%
    14:00 +19°C° 0 mm 3 m/s 763 mmHg 28%
    15:00 +19°C° 0 mm 4 m/s 762 mmHg 29%
    16:00 +19°C° 0 mm 4 m/s 762 mmHg 31%
    17:00 +17°C° 0 mm 4 m/s 762 mmHg 37%
    18:00 +14°C° 0 mm 5 m/s 762 mmHg 42%
    19:00 +12°C° 0 mm 5 m/s 763 mmHg 48%
    20:00 +10°C° 0 mm 5 m/s 763 mmHg 50%
    21:00 +9°C° 0 mm 5 m/s 763 mmHg 52%
    22:00 +8°C° 0 mm 5 m/s 763 mmHg 54%
    23:00 +7°C° 0 mm 5 m/s 762 mmHg 56%

    24 Iulie, Marţi

    Timp Temperatura Precipitaţii Vânt Presiune Umiditate
    00:00 +7°C° 0 mm 5 m/s 762 mmHg 58%
    01:00 +6°C° 0 mm 5 m/s 762 mmHg 60%
    02:00 +6°C° 0 mm 4 m/s 761 mmHg 59%
    03:00 +5°C° 0 mm 4 m/s 761 mmHg 58%
    04:00 +5°C° 0 mm 4 m/s 760 mmHg 57%
    05:00 +5°C° 0 mm 4 m/s 760 mmHg 56%
    06:00 +5°C° 0 mm 4 m/s 760 mmHg 55%
    07:00 +5°C° 0 mm 4 m/s 760 mmHg 54%
    08:00 +8°C° 0 mm 4 m/s 760 mmHg 48%
    09:00 +11°C° 0 mm 4 m/s 760 mmHg 42%
    10:00 +14°C° 0 mm 4 m/s 760 mmHg 36%
    11:00 +16°C° 0,1 mm 5 m/s 760 mmHg 36%
    12:00 +17°C° 0,1 mm 5 m/s 759 mmHg 35%
    13:00 +20°C° 0,1 mm 5 m/s 759 mmHg 34%
    14:00 +20°C° 0 mm 5 m/s 759 mmHg 34%
    15:00 +19°C° 0 mm 5 m/s 759 mmHg 35%
    16:00 +19°C° 0 mm 5 m/s 759 mmHg 36%
    17:00 +16°C° 0 mm 5 m/s 760 mmHg 43%
    18:00 +13°C° 0 mm 5 m/s 761 mmHg 50%
    19:00 +11°C° 0 mm 4 m/s 761 mmHg 58%
    20:00 +11°C° 0 mm 4 m/s 762 mmHg 61%
    21:00 +10°C° 0 mm 4 m/s 762 mmHg 64%
    22:00 +8°C° 0 mm 4 m/s 762 mmHg 67%
    23:00 +8°C° 0 mm 5 m/s 762 mmHg 69%

    25 Iulie, Miercuri

    Timp Temperatura Precipitaţii Vânt Presiune Umiditate
    00:00 +8°C° 0 mm 5 m/s 762 mmHg 70%
    01:00 +7°C° 0 mm 5 m/s 762 mmHg 72%
    02:00 +7°C° 0 mm 5 m/s 762 mmHg 72%
    03:00 +7°C° 0 mm 5 m/s 763 mmHg 73%
    04:00 +7°C° 0 mm 5 m/s 763 mmHg 73%
    05:00 +7°C° 0 mm 5 m/s 763 mmHg 73%
    06:00 +7°C° 0 mm 5 m/s 763 mmHg 73%
    07:00 +7°C° 0 mm 5 m/s 764 mmHg 73%
    08:00 +9°C° 0 mm 5 m/s 764 mmHg 65%
    09:00 +13°C° 0 mm 5 m/s 764 mmHg 56%
    10:00 +15°C° 0 mm 5 m/s 764 mmHg 48%
    11:00 +17°C° 0 mm 5 m/s 764 mmHg 45%
    12:00 +19°C° 0 mm 5 m/s 763 mmHg 42%
    13:00 +20°C° 0 mm 5 m/s 763 mmHg 40%
    14:00 +20°C° 0 mm 5 m/s 763 mmHg 40%
    15:00 +19°C° 0 mm 5 m/s 763 mmHg 41%
    16:00 +19°C° 0 mm 5 m/s 763 mmHg 42%
    17:00 +15°C° 0 mm 5 m/s 763 mmHg 49%
    18:00 +13°C° 0 mm 5 m/s 764 mmHg 57%
    19:00 +10°C° 0 mm 5 m/s 765 mmHg 64%
    20:00 +9°C° 0 mm 5 m/s 765 mmHg 68%
    21:00 +10°C° 0 mm 4 m/s 765 mmHg 72%
    22:00 +8°C° 0 mm 4 m/s 766 mmHg 76%
    23:00 +8°C° 0 mm 4 m/s 766 mmHg 79%
    Arată mai mult